FREGAT DEB, 46406

Orbit data source: Space-Track

FREGAT DEB, 46406 is space debris in LEO originally from a launch on Mon, 18 Jul 2011 UTC launched from the Tyuratam Missile And Space Complex (TTMTR). Debris objects in space refer to the collection of defunct objects orbiting the Earth. Examples of debris include non-operational satellites, rocket bodies, and fragments generated from explosions, collisions, or faulty payload assembly.

Loading next visibility...
Identifier
46406, 2011-037LM
Orbit
LEO
Country
Flag of CISCIS
Related business
Manufacturer
Lavochkin
Mission
Spacecraft
Bus & Motor
Unknown
Mass
Unknown
Launch date (UTC)
2011-07-18 (14 years ago)
Launch vehicle
Unknown
Launch site
Tyuratam Missile And Space Complex (TTMTR)
Object type
Payload
Rocket body
Debris
Shape & HBR
Unknown shape, 0.1 m
Radar Cross Section
Small (<0.1 m²)

Expand to show TLE details & history
Last TLE update: 3 days ago

TLE from 3 days ago
0 FREGAT DEB
1 46406U 11037LM  25308.46305977 -.00001189  00000-0 -33389-2 0  9990
2 46406  51.5787 343.9288 2022173 135.1237 243.2056 10.21054734196040
Epoch: 2025-11-04T11:06Z
TLE epoch observation values (Epoch: 2025-11-04T11:06:48.364Z)
Latitude
0.00005°
Longitude
133.2776°
Altitude
3,668.235 km
Speed
5.913 km/s
True Right ascension
22h 55m 42s
True Declination
0° 00' 00"
Sunlit
Object was in daylight at epoch
Visualization orbit readout
Latitude
Unknown
Longitude
Unknown
Altitude
Unknown
Speed
Unknown
Apparent Right ascension
Unknown
Apparent Declination
Unknown
Sunlit
N/A
Visualization observer readout
Local Sidereal Time
02:27:54
Azimuth
Unknown
Elevation
Unknown
Doppler factor
Unknown
Orbital elements
Apogee altitude
4,412.302 km
Perigee altitude
782.32 km
Semi-major axis
8,975.448 km
Eccentricity
0.20222
Inclination
51.5787°
RAAN
343.9288°
Arg. of periapsis
135.1237°
True anomaly
224.95206°
Mean anomaly
243.2056°
Eccentric anomaly
233.85003°
Mean motion
2.55246 °/min
Orbital period
141.04 mins
BSTAR
-0.0033389
Loading maneuver chart data...
Computing Atmospheric mass density...
Loading historical data...
Loading historical data...
Loading historical data...
Loading historical data...
Loading historical data...
Loading historical data...
Loading historical data...

Documentation

Showing up to 5 results
|